N7BDR Weather Reports


Display with metric or nautical units.
time (UTC)temp
F
wind
direction
speed
MPH
gust
MPH
rain 1hr
in
rain 24hr
in
rain mn
in
humidity
%
barometer
mb
20260504225502 71 268 1.0 25.0 0.00 0.00 0.00 32 1000.3
20260504225008 70 199 2.0 25.0 0.00 0.00 0.00 33 1000.3
20260504224506 70 168 4.0 25.0 0.00 0.00 0.00 33 1000.2
20260504224015 71 104 4.0 25.0 0.00 0.00 0.00 32 1000.3
20260504223513 72 178 2.0 25.0 0.00 0.00 0.00 28 1000.2
20260504223020 72 215 1.0 6.0 0.00 0.00 0.00 25 1000.2
20260504221847 71 262 2.0 8.0 0.00 0.00 0.00 27 1000.1
20260504221342 71 258 3.0 8.0 0.00 0.00 0.00 27 1000.0
20260504220824 71 270 3.0 12.0 0.00 0.00 0.00 27 1000.0
20260504220305 71 249 4.0 12.0 0.00 0.00 0.00 27 1000.0
20260504215814 71 270 5.0 12.0 0.00 0.00 0.00 28 1000.0
20260504215307 71 257 5.0 10.0 0.00 0.00 0.00 27 1000.0
20260504214139 73 252 1.0 8.0 0.00 0.00 0.00 25 1000.1
20260504213621 73 262 0.0 7.0 0.00 0.00 0.00 26 1000.1
20260504213112 73 286 1.0 7.0 0.00 0.00 0.00 28 1000.1
20260504212601 73 303 1.0 7.0 0.00 0.00 0.00 28 1000.1
20260504212043 73 0 1.0 6.0 0.00 0.00 0.00 27 1000.2
20260504211527 74 310 1.0 6.0 0.00 0.00 0.00 26 1000.2
20260504211038 74 304 0.0 3.0 0.00 0.00 0.00 27 1000.3
20260504205250 73 164 0.0 6.0 0.00 0.00 0.00 28 1000.5
20260504204731 73 286 1.0 6.0 0.00 0.00 0.00 28 1000.5
20260504203542 73 320 1.0 6.0 0.00 0.00 0.00 27 1000.6
20260504203041 73 325 1.0 5.0 0.00 0.00 0.00 26 1000.6
20260504201910 73 343 2.0 9.0 0.00 0.00 0.00 27 1000.6
20260504201358 73 4 3.0 8.0 0.00 0.00 0.00 28 1000.7
20260504200854 73 285 2.0 8.0 0.00 0.00 0.00 26 1000.7
20260504195727 74 340 2.0 8.0 0.00 0.00 0.00 27 1000.9
20260504195210 74 337 2.0 7.0 0.00 0.00 0.00 27 1000.8
20260504194704 74 329 3.0 8.0 0.00 0.00 0.00 28 1000.8
20260504193525 74 328 3.0 11.0 0.00 0.00 0.00 27 1001.0
20260504193028 74 47 2.0 11.0 0.00 0.00 0.00 27 1001.1
20260504191856 74 318 2.0 11.0 0.00 0.00 0.00 28 1001.2
20260504191349 74 308 2.0 11.0 0.00 0.00 0.00 28 1001.2
20260504190839 76 230 0.0 5.0 0.00 0.00 0.00 27 1001.3
20260504185711 74 273 0.0 4.0 0.00 0.00 0.00 27 1001.4
20260504185218 73 265 0.0 4.0 0.00 0.00 0.00 27 1001.5
20260504184659 73 291 0.0 1.0 0.00 0.00 0.00 26 1001.6
20260504184153 73 321 0.0 1.0 0.00 0.00 0.00 26 1001.7
20260504183007 74 77 0.0 4.0 0.00 0.00 0.00 26 1001.7
20260504182453 75 284 1.0 0.0 0.00 0.00 0.00 26 1001.7
20260504181307 74 182 0.0 5.0 0.00 0.00 0.00 27 1001.9
20260504180812 74 328 1.0 6.0 0.00 0.00 0.00 28 1001.9
20260504180312 74 326 1.0 6.0 0.00 0.00 0.00 26 1002.0
20260504175812 73 263 1.0 6.0 0.00 0.00 0.00 28 1002.1
20260504175300 73 254 2.0 6.0 0.00 0.00 0.00 27 1002.2
20260504174809 72 293 1.0 7.0 0.00 0.00 0.00 28 1002.1
20260504174310 73 113 1.0 8.0 0.00 0.00 0.00 28 1002.2
20260504173810 72 306 2.0 8.0 0.00 0.00 0.00 27 1002.4
20260504173306 72 266 4.0 9.0 0.00 0.00 0.00 27 1002.4
20260504172749 72 179 4.0 9.0 0.00 0.00 0.00 29 1002.4
20260504171028 72 172 4.0 14.0 0.00 0.00 0.00 31 1002.5
20260504170511 72 157 4.0 14.0 0.00 0.00 0.00 29 1002.6
20260504150225 66 261 4.0 12.0 0.00 0.00 0.00 37 1003.3
20260504141245 64 263 3.0 11.0 0.00 0.00 0.00 40 1003.4
20260504140727 63 156 2.0 10.0 0.00 0.00 0.00 42 1003.5
20260504140222 62 270 3.0 10.0 0.00 0.00 0.00 43 1003.5
20260504130523 60 259 2.0 7.0 0.00 0.00 0.00 46 1003.7
20260504110431 60 255 0.0 4.0 0.00 0.00 0.00 40 1003.9
20260504100518 61 264 2.0 13.0 0.00 0.00 0.00 37 1003.4
20260504080844 57 217 3.0 13.0 0.00 0.00 0.00 36 1003.5
20260504080340 54 237 1.0 11.0 0.00 0.00 0.00 41 1003.4
20260504070312 53 268 0.0 0.0 0.00 0.00 0.00 45 1003.2
20260504050348 60 267 0.0 0.0 0.00 0.00 0.00 33 1003.8
20260504045842 61 267 0.0 0.0 0.00 0.00 0.00 33 1003.8
20260504045326 62 267 0.0 0.0 0.00 0.00 0.00 32 1003.9
20260504044833 62 267 0.0 0.0 0.00 0.00 0.00 31 1003.9
20260504044326 62 266 0.0 0.0 0.00 0.00 0.00 31 1004.0
20260504043828 62 265 0.0 0.0 0.00 0.00 0.00 31 1003.9
20260504043338 63 265 0.0 0.0 0.00 0.00 0.00 30 1003.9
20260504042843 64 265 0.0 0.0 0.00 0.00 0.00 28 1003.9
20260504042342 64 265 0.0 0.0 0.00 0.00 0.00 27 1003.8
20260504041848 65 272 0.0 0.0 0.00 0.00 0.00 27 1003.8
20260504041332 65 272 0.0 0.0 0.00 0.00 0.00 27 1003.8
20260504040819 65 263 0.0 2.0 0.00 0.00 0.00 27 1003.8
20260504040310 65 266 0.0 2.0 0.00 0.00 0.00 27 1003.9
20260504035815 65 267 1.0 2.0 0.00 0.00 0.00 27 1003.8
20260504035319 65 262 0.0 1.0 0.00 0.00 0.00 27 1003.8
20260504034827 65 264 0.0 1.0 0.00 0.00 0.00 27 1003.8
20260504034310 65 270 0.0 1.0 0.00 0.00 0.00 27 1003.8
20260504033814 65 268 0.0 1.0 0.00 0.00 0.00 27 1003.7
20260504033258 66 270 0.0 1.0 0.00 0.00 0.00 26 1003.9
20260504032759 66 271 0.0 1.0 0.00 0.00 0.00 26 1003.8
20260504031636 66 270 0.0 1.0 0.00 0.00 0.00 26 1003.8
20260504031121 67 272 0.0 0.0 0.00 0.00 0.00 25 1003.8
20260504025937 67 275 0.0 2.0 0.00 0.00 0.00 25 1003.7
20260504025433 67 275 0.0 1.0 0.00 0.00 0.00 25 1003.6
20260504024918 67 276 0.0 0.0 0.00 0.00 0.00 25 1003.7
20260504024425 68 277 0.0 1.0 0.00 0.00 0.00 24 1003.5
20260504023918 68 273 0.0 0.0 0.00 0.00 0.00 24 1003.6
20260504023412 68 272 0.0 1.0 0.00 0.00 0.00 24 1003.6
20260504022900 68 273 0.0 1.0 0.00 0.00 0.00 23 1003.5
20260504022342 69 274 0.0 1.0 0.00 0.00 0.00 23 1003.5
20260504021845 69 275 0.0 1.0 0.00 0.00 0.00 23 1003.5
20260504021339 69 279 0.0 0.0 0.00 0.00 0.00 23 1003.5
20260504020828 69 279 0.0 1.0 0.00 0.00 0.00 23 1003.5
20260504015703 70 275 0.0 0.0 0.00 0.00 0.00 23 1003.5
20260504015207 70 275 0.0 0.0 0.00 0.00 0.00 23 1003.5
20260504014704 70 275 0.0 0.0 0.00 0.00 0.00 22 1003.5
20260504014155 71 275 0.0 0.0 0.00 0.00 0.00 22 1003.6
20260504013640 71 283 0.0 0.0 0.00 0.00 0.00 22 1003.6
20260504013122 71 279 0.0 0.0 0.00 0.00 0.00 22 1003.6
20260504012629 72 279 0.0 0.0 0.00 0.00 0.00 22 1003.8
20260504012113 72 278 0.0 0.0 0.00 0.00 0.00 22 1003.7
20260504011010 72 313 0.0 0.0 0.00 0.00 0.00 21 1003.8
20260504010452 72 312 0.0 0.0 0.00 0.00 0.00 22 1003.8
20260504005944 73 322 0.0 0.0 0.00 0.00 0.00 21 1003.8
20260504005426 73 327 0.0 2.0 0.00 0.00 0.00 21 1003.9
20260504004915 73 316 0.0 2.0 0.00 0.00 0.00 21 1004.0
20260504004402 73 279 0.0 0.0 0.00 0.00 0.00 21 1004.1
20260504003905 73 272 0.0 6.0 0.00 0.00 0.00 22 1004.2
20260504003409 73 318 0.0 6.0 0.00 0.00 0.00 21 1004.2
20260504002909 74 341 0.0 6.0 0.00 0.00 0.00 21 1004.2
20260504002408 74 313 0.0 3.0 0.00 0.00 0.00 20 1004.2
20260504001916 74 317 0.0 1.0 0.00 0.00 0.00 21 1004.3
20260504001407 75 301 0.0 0.0 0.00 0.00 0.00 21 1004.3
20260504000848 75 301 0.0 0.0 0.00 0.00 0.00 20 1004.2
20260503235717 75 277 0.0 0.0 0.00 0.00 0.00 18 1004.3
20260503235219 75 310 0.0 2.0 0.00 0.00 0.00 19 1004.3
20260503234719 75 296 0.0 2.0 0.00 0.00 0.00 18 1004.3
20260503234219 75 298 0.0 0.0 0.00 0.00 0.00 19 1004.3
20260503233046 76 333 1.0 5.0 0.00 0.00 0.00 16 1004.4
20260503232554 76 307 1.0 2.0 0.00 0.00 0.00 16 1004.5
20260503231433 76 339 1.0 6.0 0.00 0.00 0.00 14 1004.6
20260503230933 76 335 2.0 7.0 0.00 0.00 0.00 14 1004.6
20260503230441 76 338 2.0 7.0 0.00 0.00 0.00 14 1004.6